Location: Spring Creek
(38.2870°N, 100.2160°W)
Time: 02:16:37
(UTC+00:00)

Cosmos 1782 - Pass Details

Date: 08 May 2021
Orbit: 537 x 550 km, 82.5° (Epoch: 24 June)

Event Time Altitude Azimuth Distance (km) Brightness Sun altitude
Exits shadow 03:13:21 29° 93° (E) 1,025 3.7 -16.8°
Maximum altitude 03:13:26 29° 91° (E) 1,024 3.8 -16.8°
Drops below altitude 10° 03:16:55 10° 30° (NNE) 1,824 5.6 -17.4°
Sets 03:19:16 0° 20° (NNE) 2,720 6.6 -17.7°
